Massena, NY

5:16 PM EST on December 07, 2019 (GMT -0500)
Massena International-Richards

Weather History for KMSS - October, 2019

Change the Weather History Date:

Thursday, October 3, 2019

  Actual Average Record
Temperature  
Mean Temperature 45 °F 51 °F  
Max Temperature 50 °F 62 °F 83 °F (1953)
Min Temperature 39 °F 41 °F 29 °F (1975)
Degree Days  
Heating Degree Days 20 14  
Month to date heating degree days 34 41  
Since 1 July heating degree days 249 341  
Cooling Degree Days 0 0  
Month to date cooling degree days 0 0  
Year to date cooling degree days 398 361  
Moisture  
Dew Point 38 °F    
Average Humidity 75    
Maximum Humidity 93    
Minimum Humidity 56    
Precipitation  
Precipitation 0.04 in 0.11 in 0.71 in (1954)
Month to date precipitation 0.94 0.32  
Year to date precipitation 24.65 26.51  
Sea Level Pressure  
Sea Level Pressure 30.10 in    
Wind  
Wind Speed 9 mph (ENE)    
Max Wind Speed 18 mph    
Max Gust Speed 23 mph    
Visibility 9 miles    
Events Rain    
T = Trace of Precipitation, MM = Missing Value Source: NWS Daily Summary

Daily Weather History Graph

Daily Weather History Graph

Search for Another Location

Airport or City:

Astronomy

Oct. 03, 2019 Rise Set
Actual Time 6:59 AM EDT 6:36 PM EDT
Civil Twilight 6:30 AM EDT 7:05 PM EDT
Nautical Twilight 5:56 AM EDT 7:39 PM EDT
Astronomical Twilight 5:21 AM EDT 8:14 PM EDT
Moon 12:41 PM EDT (10/3) 10:00 PM EDT (10/3)
Length of Visible Light 12h 35m
Length of Day
11h 37m
Waxing Crescent, 29% of the Moon is Illuminated
Oct 3
Waxing Crescent
Oct 5
First Quarter
Oct 13
Full
Oct 21
Last Quarter
Oct 27
New

Hourly Weather History & Observations

Time (EDT) Temp. Windchill Dew Point Humidity Pressure Visibility Wind Dir Wind Speed Gust Speed Precip Events Conditions
12:53 AM 45.0 °F 39.7 °F 35.1 °F 68% 30.22 in 10.0 mi ENE 10.4 mph - N/A   Scattered Clouds
1:53 AM 42.1 °F 37.7 °F 35.1 °F 76% 30.23 in 10.0 mi East 6.9 mph - N/A   Clear
2:53 AM 41.0 °F 37.1 °F 35.1 °F 79% 30.22 in 10.0 mi ENE 5.8 mph - N/A   Clear
3:53 AM 39.9 °F 35.8 °F 35.1 °F 83% 30.22 in 10.0 mi ENE 5.8 mph - N/A   Clear
4:53 AM 39.9 °F 36.7 °F 35.1 °F 83% 30.25 in 10.0 mi ENE 4.6 mph - N/A   Clear
5:53 AM 39.9 °F 35.8 °F 35.1 °F 83% 30.24 in 10.0 mi NE 5.8 mph - N/A   Clear
6:53 AM 39.9 °F 35.1 °F 34.0 °F 79% 30.25 in 10.0 mi ENE 6.9 mph - N/A   Clear
7:53 AM 41.0 °F 39.0 °F 34.0 °F 76% 30.26 in 10.0 mi East 3.5 mph - N/A   Clear
8:53 AM 43.0 °F 36.8 °F 34.0 °F 71% 30.25 in 10.0 mi ENE 11.5 mph - N/A   Clear
9:53 AM 45.0 °F 38.5 °F 33.1 °F 63% 30.24 in 10.0 mi ENE 13.8 mph - N/A   Clear
10:53 AM 48.0 °F - 33.1 °F 56% 30.23 in 10.0 mi ENE 16.1 mph - N/A   Clear
11:53 AM 46.9 °F - 34.0 °F 61% 30.19 in 10.0 mi ENE 11.5 mph - N/A   Clear
12:53 PM 46.9 °F - 33.1 °F 59% 30.16 in 10.0 mi East 9.2 mph - N/A   Scattered Clouds
1:53 PM 48.0 °F - 35.1 °F 61% 30.10 in 10.0 mi NE 13.8 mph - N/A   Overcast
2:53 PM 48.9 °F - 36.0 °F 61% 30.08 in 10.0 mi ENE 11.5 mph - N/A   Overcast
3:53 PM 50.0 °F - 37.9 °F 63% 30.07 in 10.0 mi ENE 11.5 mph - 0.00 in Rain Light Rain
4:53 PM 48.9 °F - 37.0 °F 64% 30.05 in 10.0 mi ENE 16.1 mph - 0.00 in   Overcast
5:53 PM 48.0 °F - 37.0 °F 66% 30.02 in 10.0 mi ENE 10.4 mph - N/A   Overcast
6:53 PM 46.9 °F - 39.9 °F 77% 29.99 in 9.0 mi East 6.9 mph - 0.00 in Rain Light Rain
7:29 PM 46.0 °F 41.9 °F 41.0 °F 83% 29.96 in 10.0 mi ENE 8.1 mph - 0.00 in   Overcast
7:53 PM 46.0 °F 42.5 °F 42.1 °F 86% 29.98 in 10.0 mi NE 6.9 mph - 0.00 in   Overcast
8:17 PM 46.0 °F 41.4 °F 43.0 °F 89% 29.96 in 5.0 mi NE 9.2 mph - 0.00 in Rain Light Rain
8:30 PM 46.0 °F 41.4 °F 43.0 °F 89% 29.95 in 8.0 mi ENE 9.2 mph - 0.00 in   Overcast
8:53 PM 46.0 °F 42.5 °F 44.1 °F 93% 29.96 in 5.0 mi NE 6.9 mph - 0.00 in   Overcast
9:01 PM 46.0 °F 41.9 °F 44.1 °F 93% 29.95 in 5.0 mi NE 8.1 mph - N/A   Overcast
9:53 PM 46.9 °F - 45.0 °F 93% 29.95 in 4.0 mi NE 6.9 mph - 0.02 in Rain Light Rain
10:04 PM 46.9 °F - 45.0 °F 93% 29.94 in 4.0 mi NNE 8.1 mph - 0.00 in Rain Light Rain
10:53 PM 45.0 °F 39.7 °F 43.0 °F 93% 29.95 in 4.0 mi NNE 10.4 mph - 0.02 in Rain Light Rain
11:53 PM 44.1 °F 39.0 °F 41.0 °F 89% 29.95 in 5.0 mi NNE 9.2 mph - 0.00 in   Overcast